Regional Weather Roundup
Issued by NWS

Home | Current Version | Previous Version | Text Only | Print | Product List | Glossary On
Versions: 1 2 3 4 5 6 7 8 9 10 11 12 13 14 15 16 17 18 19 20 21 22 23 24 25 26 27 28 29 30 31 32 33 34 35 36 37 38 39 40 41 42 43 44 45 46 47 48 49 50
757
ASUS42 KKEY 170710
RWRKEY

FLORIDA REGIONAL WEATHER ROUNDUP FOR THE FLORIDA KEYS
NATIONAL WEATHER SERVICE KEY WEST FLORIDA
200 AM EST TUE JAN 17 2017

...SOUTH FLORIDA AND THE KEYS...

CITY           SKY/WX    TMP DP  RH WIND       PRES   REMARKS
FORT MYERS     CLEAR     64  62  93 MISG      30.20S
SW REGIONAL AP CLEAR     62  60  93 E5        30.21S
NAPLES         CLEAR     65  63  93 E8        30.19F
MIAMI          PTCLDY    72  62  71 SE5       30.21S
WEST KENDALL   CLEAR     67  62  84 E6        30.20F
HOMESTEAD      PTCLDY    72  67  84 E8        30.19F
MARATHON       CLEAR     77  66  68 E9G18     30.17S
BOCA CHICA NAS PTCLDY    74  67  78 E16       30.16S
KEY WEST INTL  PTCLDY    76  68  76 E14       30.16F

...INTERNATIONAL WEATHER...

CITY           SKY/WX    TMP DP  RH WIND       PRES   REMARKS
NASSAU BAHAMAS NOT AVBL
CANCUN MEXICO  MOCLDY    73  70  88 SE8       30.05F
COZUMEL MEXICO PTCLDY    72  70  94 SE5       30.03F

ADJACENT COASTAL WATERS...

STATION/POSITION TIME  SKY/WX   TEMP    WIND        PRES    WAVE
                                AIR SEA DIR/SP/G            HT/PER
                 (UTC)          (F)     (DEG/KT/KT) (MB)    (FT/S)
PULASKI SHOAL LI 0700            73      90/ 18/ 19 1021.0F
SAND KEY         0650            75     130/ 24/ 27 1021.4F
LONG KEY         0600            74 71  100/ 15/ 16 1022.2F
MOLASSES REEF    0600                   120/ 18       N/A
FOWEY ROCKS      0700            74 76  110/ 17/ 19 1023.1F

$$




USA.gov is the U.S. government's official web portal to all federal, state and local government web resources and services.